This is the latest recevied weather packets stored in our database for station/object ON7MOR-11. If no packets are shown the sender has not sent any weather packets the latest 10 day(s).
| Time | Temp. | Humidity | Pressure | Rain* | Wind** | Luminosity | Snow |
|---|---|---|---|---|---|---|---|
| 1777552972 | 20° C | 29% | 1025.9 hPa | - | - | - | - |
| 1777547571 | 19.44° C | 29% | 1026.9 hPa | - | - | - | - |
| 1777544871 | 18.89° C | 23% | 1027.2 hPa | - | - | - | - |
| 1777541270 | 20° C | 27% | 1027.5 hPa | - | - | - | - |
| 1777537670 | 20.56° C | 27% | 1028 hPa | - | - | - | - |
| 1777534073 | 20.56° C | 26% | 1028.3 hPa | - | - | - | - |
| 1777533173 | 19.44° C | 26% | 1028.2 hPa | - | - | - | - |
| 1777532273 | 17.78° C | 31% | 1028.3 hPa | - | - | - | - |
| 1777531373 | 16.67° C | 33% | 1028.3 hPa | - | - | - | - |
| 1777530473 | 16.67° C | 33% | 1028.3 hPa | - | - | - | - |
| 1777529572 | 17.22° C | 32% | 1028.4 hPa | - | - | - | - |
| 1777528672 | 16.67° C | 33% | 1028.4 hPa | - | - | - | - |
| 1777526872 | 16.67° C | 35% | 1028.2 hPa | - | - | - | - |
| 1777525972 | 16.11° C | 36% | 1028.2 hPa | - | - | - | - |
| 1777525072 | 16.11° C | 36% | 1028.2 hPa | - | - | - | - |
| 1777524172 | 16.11° C | 36% | 1028.1 hPa | - | - | - | - |
| 1777523272 | 16.11° C | 36% | 1028 hPa | - | - | - | - |
| 1777522372 | 16.11° C | 36% | 1027.9 hPa | - | - | - | - |
| 1777521472 | 16.67° C | 36% | 1027.8 hPa | - | - | - | - |
| 1777520571 | 16.67° C | 36% | 1027.8 hPa | - | - | - | - |
| 1777519671 | 16.67° C | 36% | 1027.7 hPa | - | - | - | - |
| 1777518771 | 16.67° C | 36% | 1027.7 hPa | - | - | - | - |
| 1777517871 | 16.67° C | 36% | 1027.7 hPa | - | - | - | - |
| 1777516971 | 16.67° C | 36% | 1027.6 hPa | - | - | - | - |
| 1777516071 | 16.67° C | 36% | 1027.6 hPa | - | - | - | - |
* Rain since midnight (hover to see other rain measurements)
** Current wind speed in m/s (hover to see current wind gust speed)